Weather History for KSBP - January, 2014

Change the Weather History Date:

Monday, January 20, 2014

  Actual Average Record
Temperature  
Mean Temperature 56 °F -  
Max Temperature 75 °F 64 °F 84 °F (1961)
Min Temperature 37 °F 42 °F 32 °F (1963)
Degree Days  
Heating Degree Days 9    
Growing Degree Days 6 (Base 50)    
Moisture  
Dew Point 26 °F    
Average Humidity 41    
Maximum Humidity 64    
Minimum Humidity 15    
Precipitation  
Precipitation 0.00 in - - ()
Sea Level Pressure  
Sea Level Pressure 30.14 in    
Wind  
Wind Speed 2 mph (NW)    
Max Wind Speed 10 mph    
Max Gust Speed -    
Visibility 10 miles    
Events      
Averages and records for this station are not official NWS values.
T = Trace of Precipitation, MM = Missing Value Source: NWS Daily Summary

Daily Weather History Graph

Daily Weather History Graph

Search for Another Location

Airport or City:

Trip Planner

Search our weather history database for the weather conditions in past years. The results will help you decide how hot, cold, wet, or windy it might be!

Date:

Astronomy

Jan. 20, 2014 Rise Set
Actual Time 7:08 AM PST 5:18 PM PST
Civil Twilight 6:41 AM PST 5:46 PM PST
Nautical Twilight 6:10 AM PST 6:17 PM PST
Astronomical Twilight 5:40 AM PST 6:47 PM PST
Moon 9:46 PM PST (1/20) 9:22 AM PST (1/20)
Length of Visible Light 11h 04m
Length of Day
10h 09m
Waning Gibbous, 82% of the Moon is Illuminated
Jan 20
Waning Gibbous
Jan 23
Last Quarter
Jan 30
New
Feb 6
First Quarter
Feb 14
Full

Hourly Weather History & Observations

Time (PST) Temp. Windchill Dew Point Humidity Pressure Visibility Wind Dir Wind Speed Gust Speed Precip Events Conditions
12:56 AM 42.1 °F - 19.0 °F 40% 30.11 in 10.0 mi Calm Calm - N/A   Clear
1:56 AM 41.0 °F - 19.0 °F 41% 30.11 in 10.0 mi Calm Calm - N/A   Clear
2:56 AM 39.0 °F - 18.0 °F 43% 30.12 in 10.0 mi Calm Calm - N/A   Clear
3:56 AM 37.9 °F - 19.0 °F 47% 30.10 in 10.0 mi Calm Calm - N/A   Clear
4:56 AM 37.9 °F 34.4 °F 19.9 °F 48% 30.11 in 10.0 mi SE 4.6 mph - N/A   Clear
5:56 AM 37.0 °F - 19.0 °F 48% 30.11 in 10.0 mi Calm Calm - N/A   Clear
6:56 AM 37.0 °F - 19.0 °F 48% 30.13 in 10.0 mi Calm Calm - N/A   Clear
7:56 AM 39.9 °F - 19.9 °F 45% 30.14 in 10.0 mi Calm Calm - N/A   Clear
8:56 AM 48.0 °F - 21.0 °F 34% 30.15 in 10.0 mi Calm Calm - N/A   Clear
9:56 AM 55.0 °F - 21.0 °F 27% 30.17 in 10.0 mi Calm Calm - N/A   Clear
10:56 AM 64.9 °F - 21.0 °F 19% 30.16 in 10.0 mi Calm Calm - N/A   Clear
11:56 AM 72.0 °F - 21.9 °F 15% 30.14 in 10.0 mi North 3.5 mph - N/A   Clear
12:56 PM 75.0 °F - 27.0 °F 17% 30.11 in 10.0 mi WNW 5.8 mph - N/A   Clear
1:56 PM 75.0 °F - 26.1 °F 16% 30.10 in 10.0 mi NW 8.1 mph - N/A   Clear
2:56 PM 72.0 °F - 32.0 °F 23% 30.10 in 10.0 mi NW 10.4 mph - N/A   Clear
3:56 PM 66.0 °F - 37.9 °F 36% 30.12 in 10.0 mi NW 10.4 mph - N/A   Clear
4:56 PM 61.0 °F - 36.0 °F 39% 30.13 in 10.0 mi NW 6.9 mph - N/A   Clear
5:56 PM 57.0 °F - 41.0 °F 55% 30.15 in 10.0 mi Calm Calm - N/A   Clear
6:56 PM 54.0 °F - 42.1 °F 64% 30.17 in 10.0 mi Calm Calm - N/A   Clear
7:56 PM 48.9 °F - 34.0 °F 56% 30.18 in 10.0 mi Calm Calm - N/A   Clear
8:56 PM 48.0 °F - 33.1 °F 56% 30.19 in 10.0 mi Calm Calm - N/A   Clear
9:56 PM 45.0 °F - 30.0 °F 56% 30.21 in 10.0 mi Calm Calm - N/A   Clear
10:56 PM 44.1 °F 42.5 °F 30.0 °F 58% 30.22 in 10.0 mi ESE 3.5 mph - N/A   Clear
11:56 PM 43.0 °F - 28.9 °F 58% 30.21 in 10.0 mi Calm Calm - N/A   Clear